Flag for Honduras Weather past 2 weeks in Choloma, Honduras

Now
77 °F

Passing clouds.


Feels Like: 78 °F
Forecast: 77 / 88 °F
Wind: No wind

Location: La Mesa San Pedro Sula

Current Time: Aug 31, 2015 at 3:21:05 AM

Latest Report: Aug 31, 2015 at 3:00 AM


Visibility: N/A

Pressure: 29.92 "Hg

Humidity: 100%

Dew point: 77 °F

Location of CholomaLocation

Historic Weather in Choloma — Graph

°F

Choloma temperature yesterday

Maximum temperature yesterday: 97 °F (at 2:00 PM)
Minimum temperature yesterday: 77 °F (at 5:00 AM)
Average temperature yesterday: 86 °F

Past Weeks' High & Low Weather Summary

 TemperatureHumidityPressure
High99 °F (Aug 20, 1:00 PM)100% (Aug 16, 12:00 AM)29.98 "Hg (Aug 16, 12:00 AM)
Low73 °F (Aug 16, 3:00 AM)44% (Aug 20, 1:00 PM)29.77 "Hg (Aug 19, 4:00 PM)
Average85 °F82%29.90 "Hg
* Reported Midnight between Aug 15 and Aug 16 — Midnight between Aug 30 and Aug 31, Choloma, Weather by CustomWeather, © 2015

Note: Actual official high and low records may vary slightly from our data, if they occured in-between our weather recording intervals... More about our weather records

Advertising

Choloma weather history for previous 24 hours

 ConditionsComfort  
Time TempWeatherWind HumidityBarometerVisibility
12:00 AM
Mon, Aug 31
81 °FPassing clouds.No wind94%29.92 "HgN/A
11:00 PM
Sun, Aug 30
81 °FPassing clouds.No wind94%29.95 "HgN/A
10:00 PM82 °FPassing clouds.7 mph94%29.95 "HgN/A
9:00 PM84 °FPassing clouds.6 mph89%29.92 "HgN/A
8:00 PM84 °FPassing clouds.10 mph89%29.92 "HgN/A
7:00 PM84 °FPassing clouds.10 mph84%29.89 "HgN/A
6:00 PM86 °FPassing clouds.17 mph75%29.86 "HgN/A
5:00 PM90 °FPassing clouds.17 mph67%29.83 "HgN/A
3:00 PM95 °FPassing clouds.15 mph56%29.83 "HgN/A
2:00 PM97 °FPassing clouds.14 mph50%29.83 "HgN/A
1:00 PM95 °FPassing clouds.12 mph53%29.86 "HgN/A
12:00 PM95 °FPassing clouds.10 mph53%29.89 "HgN/A
11:00 AM93 °FScattered clouds.8 mph63%29.92 "HgN/A
10:00 AM90 °FScattered clouds.7 mph71%29.95 "HgN/A
9:00 AM88 °FScattered clouds.2 mph75%29.95 "HgN/A
8:00 AM84 °FPassing clouds.No wind84%29.92 "HgN/A
7:00 AM81 °FPassing clouds.6 mph89%29.89 "HgN/A
6:00 AM77 °FPassing clouds.5 mph94%29.89 "HgN/A
5:00 AM77 °FPassing clouds.3 mph94%29.86 "HgN/A
4:00 AM79 °FPassing clouds.No wind100%29.86 "HgN/A
3:00 AM79 °FPassing clouds.No wind100%29.89 "HgN/A
Weather by CustomWeather, © 2015

See weather overviewHow to use our weather pages